Theta_e
284 284 284 283 284 285 286 286 288 290 291 291 291 292 293 295 295 296 297 299 300 303 307 310 312 312 318 318 319 317 316 316
284 284 283 282 283 284 284 285 286 287 290 290 291 292 293 293 294 295 296 297 299 301 304 306 309 314 316 313 312 309 307 307
284 283 282 281 282 283 283 284 285 287 289 289 290 290 291 291 292 294 295 296 298 300 301 302 303 306 306 304 304 303 300 300
283 283 281 280 281 281 282 283 284 286 288 289 289 289 289 290 291 292 293 295 296 297 297 297 299 299 299 298 296 296 296 296
282 282 281 280 280 281 282 282 283 285 288 287 288 288 288 289 290 290 292 293 294 294 295 295 295 296 295 295 294 293 292 292
277 284 276 277 278 280 281 282 283 284 286 287 287 288 288 288 289 289 290 291 292 292 292 293 293 294 293 293 292 290 289 289
278 278 278 276 278 281 279 282 283 283 286 287 286 287 287 287 287 288 288 289 290 290 290 290 291 291 291 291 290 289 288 287
283 280 279 279 282 280 281 282 282 284 285 284 285 284 285 286 286 286 286 287 287 288 288 288 289 290 289 288 288 287 287 286
285 283 282 280 278 281 282 282 283 284 284 283 283 282 284 285 285 285 286 286 286 286 287 287 288 289 288 287 287 286 285 285
285 283 281 280 280 281 281 282 281 282 283 282 282 282 283 283 283 284 285 285 285 285 285 286 286 288 287 286 285 284 283 284
284 283 281 280 280 281 281 280 280 281 282 282 282 282 281 281 281 281 283 283 283 283 284 284 285 287 286 285 284 283 282 283
282 282 281 279 279 280 279 278 279 278 279 278 280 280 281 280 280 280 280 280 279 279 280 281 283 286 286 286 284 283 282 282
282 282 280 279 279 279 278 279 276 275 275 274 274 278 279 277 277 277 278 277 277 278 278 278 279 283 286 286 285 285 282 281
282 278 274 276 278 277 277 276 274 273 272 273 276 275 276 276 275 275 275 277 277 278 279 280 278 279 286 286 286 284 280 280
276 276 278 275 276 278 275 274 274 274 273 275 277 277 275 276 276 276 275 274 275 276 277 278 280 278 278 281 283 283 281 284
280 280 281 277 277 276 275 274 274 274 274 274 277 277 277 275 276 276 275 277 275 276 276 276 276 278 280 280 279 280 280 281
280 279 281 278 278 277 276 276 276 276 275 276 276 275 276 274 275 280 281 281 282 282 278 276 279 281 284 284 283 283 282 277
282 282 280 279 279 278 276 276 276 278 277 277 276 276 275 274 275 275 278 283 284 284 285 284 279 283 285 285 284 284 282 276
278 279 279 277 279 280 277 276 277 278 276 278 277 277 277 277 277 276 275 277 277 282 284 285 285 284 284 285 285 281 282 279
275 276 278 278 280 278 277 277 277 278 279 278 278 277 277 277 277 277 276 276 275 273 278 279 285 285 285 285 282 280 279 280
Wind_Speed
5 5 3 2 3 5 6 5 7 8 7 6 5 5 5 4 5 5 5 5 5 5 5 5 4 4 4 3 3 4 1 2
4 3 4 4 3 4 6 7 7 7 6 6 6 6 5 4 5 5 4 5 5 5 4 3 3 1 3 4 4 5 5 3
4 3 2 4 4 4 6 6 6 6 7 6 6 6 5 6 5 5 4 3 3 4 4 4 4 4 5 6 5 7 7 6
4 4 4 3 3 3 2 2 4 6 6 6 6 6 5 5 5 5 4 4 4 4 4 5 5 5 7 8 9 8 7 7
5 5 3 3 3 3 3 3 5 5 5 5 5 5 5 5 6 6 6 5 6 6 6 6 6 6 8 9 9 10 8 7
2 3 4 4 3 4 3 2 2 3 3 3 3 4 4 5 5 6 6 6 6 6 6 6 6 5 7 8 9 10 9 9
4 5 5 5 4 4 4 3 1 1 2 3 4 4 5 4 4 6 6 6 6 7 6 8 6 12 12 9 9 8 9 9
5 5 5 5 4 4 4 3 1 1 1 3 4 4 5 4 4 6 6 5 5 7 6 8 7 13 14 12 8 8 8 9
5 4 6 5 4 3 3 3 4 2 1 2 2 3 3 3 5 6 4 4 4 5 6 7 7 11 12 12 9 8 8 8
5 5 6 7 5 4 3 2 4 4 2 2 3 3 3 4 4 3 3 4 5 4 6 6 6 9 10 9 7 8 8 6
7 5 7 7 8 5 3 3 4 4 4 1 1 3 4 3 3 2 3 4 4 6 5 5 5 8 10 8 6 8 6 5
6 7 6 7 8 7 6 6 4 2 0 3 4 2 3 4 2 3 3 4 4 4 3 4 3 4 8 9 4 5 5 5
6 6 7 8 8 7 8 5 5 4 1 2 1 2 3 1 3 3 4 4 4 3 2 2 3 2 5 7 6 9 6 6
6 5 4 6 7 8 6 8 8 7 6 4 3 2 2 2 2 2 3 4 4 3 3 2 1 2 3 6 9 9 4 3
3 5 7 7 7 8 6 7 8 7 7 6 6 6 4 3 3 3 3 3 3 4 4 4 4 3 2 2 4 8 7 9
9 9 11 8 10 9 8 9 7 7 6 7 6 7 6 5 4 5 4 4 3 4 3 5 5 6 8 7 5 5 6 7
8 7 10 8 9 8 10 10 9 8 7 7 7 6 5 4 4 12 13 11 13 9 7 4 5 6 13 12 12 13 15 3
11 10 7 8 9 8 10 11 11 11 9 7 8 7 6 5 6 6 5 14 15 14 14 12 8 9 13 14 14 15 14 4
5 6 7 7 11 7 9 10 11 10 7 7 7 7 7 7 7 5 6 6 4 11 13 14 13 11 12 14 12 8 13 7
4 6 7 8 10 6 10 12 12 10 9 9 7 8 8 7 8 7 7 7 5 3 5 5 14 14 14 16 10 9 10 10
Wind_Direction
260 281 299 326 322 336 346 345 348 343 342 355 353 348 344 349 357 345 339 342 336 342 332 309 268 216 226 184 184 202 184 206
255 255 289 320 341 342 348 348 354 341 337 354 355 357 356 7 350 349 340 342 342 334 321 321 334 279 159 98 87 91 85 46
267 251 269 305 329 348 343 345 332 333 352 1 358 5 5 6 4 354 343 339 354 337 16 24 32 45 79 86 79 99 87 71
290 276 269 249 268 291 282 283 319 335 354 360 6 2 10 4 3 5 5 18 40 50 66 70 62 76 79 90 86 75 76 84
306 303 285 277 280 288 304 333 341 350 357 14 2 358 6 9 21 21 19 25 52 42 48 61 69 88 95 99 96 85 74 67
213 281 285 279 281 284 281 300 338 350 346 360 10 26 16 25 30 37 27 38 46 61 57 65 64 69 97 98 95 99 90 75
223 207 241 239 238 252 255 249 227 11 356 1 20 23 28 40 31 66 44 38 48 56 60 62 73 79 80 92 98 100 99 97
224 201 185 207 200 208 242 259 229 190 66 38 28 33 23 12 30 55 63 56 56 65 69 70 73 86 95 96 94 101 106 112
223 181 154 160 173 160 193 246 264 210 124 80 76 53 23 31 44 42 35 44 51 58 66 78 79 97 103 98 99 101 101 114
189 168 148 148 165 176 176 253 289 264 209 160 128 98 69 58 56 39 67 57 66 62 77 88 88 105 111 105 101 92 89 86
159 158 148 162 148 165 243 236 252 276 289 293 168 139 127 122 98 45 50 60 45 61 53 72 88 103 109 107 112 110 104 95
173 172 192 154 151 166 178 230 255 241 129 335 311 209 160 144 122 127 107 97 79 71 37 65 90 117 125 128 114 125 122 125
186 195 181 169 162 174 196 189 166 162 204 220 247 312 314 152 133 122 128 116 108 109 83 38 2 167 150 155 142 142 133 140
195 204 224 187 179 183 210 165 162 162 188 200 240 276 191 216 265 151 159 156 166 170 167 178 350 355 186 161 155 146 117 130
180 219 228 203 204 218 172 161 160 183 190 190 207 218 232 218 190 228 208 189 174 191 199 199 199 205 226 194 151 146 136 157
196 217 229 190 209 200 184 165 185 190 183 195 190 207 212 219 205 206 220 216 205 202 178 187 223 231 200 175 169 162 165 140
215 218 234 211 218 201 191 185 180 197 196 193 196 194 202 203 233 234 232 232 237 247 210 214 241 221 201 200 188 175 157 132
218 220 219 208 220 199 187 184 199 211 194 191 194 193 201 204 209 234 230 237 238 233 238 232 228 223 202 197 192 189 184 210
203 220 226 213 227 212 172 186 202 215 210 195 198 197 193 197 208 206 201 212 222 245 231 229 229 224 216 205 199 207 213 224
206 221 224 230 241 189 180 191 201 201 206 202 193 197 200 192 190 195 202 225 219 183 221 230 220 222 218 212 214 218 228 228